Location: Newark
(40.7360°N, 74.1730°W)
Time: 15:51:16
(UTC-04:00)

Amateur Radio Satellites - All Passes

Search period start: 20 September 2017 15:21
Search period end: 21 September 2017 15:21
Location: Newark, 40.7360°N, 74.1730°W

Satellite Date Start Highest point End Downlink Frequencies (MHz)
Time Altitude Azimuth
RS-15 20 Sep 15:22:37 15:34:42 87° 58° (ENE) 15:46:05 29.354- 29.394
DX 1 20 Sep 15:42:22 15:45:23 19° 295° (WNW) 15:48:23 434.975-435.025
UKube-1 20 Sep 15:42:41 15:46:18 27° 292° (WNW) 15:49:55 .
YUBILEINY 20 Sep 15:53:10 15:55:25 11° 305° (NW) 15:57:40 435.215
AO-7 20 Sep 15:55:45 16:04:01 66° 255° (WSW) 16:12:20 .
PCSat 20 Sep 15:55:49 16:01:15 88° 298° (WNW) 16:06:43 145.827
NO-84 20 Sep 16:00:09 16:02:50 19° 331° (NNW) 16:05:21 435.350 FM
ITUPSAT 1 20 Sep 16:05:50 16:10:36 58° 101° (E) 16:15:21 437.325
MOZHAYETS 4 20 Sep 16:11:23 16:16:03 70° 102° (ESE) 16:20:39
CUBESAT XI-V 20 Sep 16:28:40 16:32:16 22° 94° (E) 16:35:49 437.345
ITAMSAT 1 20 Sep 16:30:43 16:35:22 33° 263° (W) 16:40:02 435.822/435.867
DOVE 4 20 Sep 16:33:02 16:36:32 23° 69° (ENE) 16:39:56 437.250
SO-50 20 Sep 16:35:27 16:38:57 22° 315° (NW) 16:42:28 436.795
BEESAT 20 Sep 16:45:07 16:49:49 55° 288° (WNW) 16:54:29 436.000
KKS-1 20 Sep 16:59:14 17:01:49 15° 92° (E) 17:04:23 437.445
XW-2D 20 Sep 17:17:11 17:19:44 17° 67° (ENE) 17:22:17 145.860 - 145.880
HO-68 20 Sep 17:17:47 17:21:03 14° 51° (NE) 17:24:19 435.675
XW-2B 20 Sep 17:28:53 17:31:54 22° 69° (ENE) 17:34:55 145.730 - 145.750
XW-2F 20 Sep 17:31:47 17:34:49 23° 69° (ENE) 17:37:52 145.980 - 146.000
STARS 20 Sep 17:33:59 17:36:24 14° 92° (E) 17:38:48 437.465
RS-15 20 Sep 17:36:56 17:45:29 24° 260° (W) 17:53:47 29.354- 29.394
PCSat 20 Sep 17:42:10 17:45:26 16° 318° (NW) 17:48:43 145.827
ITUPSAT 1 20 Sep 17:45:00 17:47:56 16° 297° (WNW) 17:50:51 437.325
XW-2C 20 Sep 17:49:20 17:52:55 39° 73° (ENE) 17:56:32 145.795 - 145.815
MOZHAYETS 4 20 Sep 17:50:31 17:52:35 13° 298° (WNW) 17:54:38
CUTE-I 20 Sep 17:52:32 17:57:32 44° 70° (ENE) 18:02:32 437.470
AO-7 20 Sep 17:56:31 17:58:13 11° 273° (W) 17:59:58 .
LilacSat-2 20 Sep 17:57:05 18:00:51 53° 74° (ENE) 18:04:38 437.200
CUBESAT XI-V 20 Sep 18:05:29 18:09:43 36° 290° (WNW) 18:13:54 437.345
NUDT-PHONESAT 20 Sep 18:06:27 18:10:01 44° 74° (ENE) 18:13:37 437.300
DOVE 4 20 Sep 18:10:02 18:14:05 32° 263° (W) 18:17:59 437.250
SEEDS 20 Sep 18:21:15 18:22:54 12° 63° (ENE) 18:24:31 437.485
KAITUO 1B 20 Sep 18:28:57 18:32:45 88° 258° (WSW) 18:36:34 145.475/437.950
CUBEBUG 2 20 Sep 18:34:00 18:36:21 15° 64° (ENE) 18:38:45 437.445
KKS-1 20 Sep 18:34:20 18:38:37 49° 288° (WNW) 18:42:54 437.445
CUTE 1.7 + AOD 2 20 Sep 18:39:54 18:43:39 30° 70° (ENE) 18:47:25 437.475
UWE-3 20 Sep 18:48:57 18:50:48 13° 62° (ENE) 18:52:41 435.000/436.395/437.385
XW-2D 20 Sep 18:50:09 18:53:38 33° 263° (W) 18:57:09 145.860 - 145.880
AAUSAT CUBESAT 2 20 Sep 18:54:39 18:56:21 12° 64° (ENE) 18:58:03 437.432
HO-68 20 Sep 19:00:25 19:07:30 70° 71° (ENE) 19:14:37 435.675
XW-2B 20 Sep 19:02:45 19:05:56 25° 265° (W) 19:09:09 145.730 - 145.750
XW-2F 20 Sep 19:05:41 19:08:49 24° 265° (W) 19:11:59 145.980 - 146.000
STARS 20 Sep 19:08:44 19:13:00 50° 288° (WNW) 19:17:15 437.465
XW-2A 20 Sep 19:16:24 19:19:22 28° 72° (ENE) 19:22:21 145.665 - 145.685
XW-2C 20 Sep 19:25:12 19:27:16 14° 268° (W) 19:29:20 145.795 - 145.815
CUTE-I 20 Sep 19:33:33 19:37:44 23° 266° (W) 19:41:55 437.470
LilacSat-2 20 Sep 19:34:37 19:35:25 11° 270° (W) 19:36:14 437.200
AO-73 20 Sep 19:42:07 19:45:29 23° 67° (ENE) 19:48:55 145.935
ZACube-1 20 Sep 19:42:34 19:46:07 26° 68° (ENE) 19:49:45 437.345
NUDT-PHONESAT 20 Sep 19:42:44 19:44:07 12° 269° (W) 19:45:30 437.300
Oscar 11 20 Sep 19:45:49 19:48:47 18° 66° (ENE) 19:51:46 .
STRAND 1 20 Sep 19:47:25 19:51:59 32° 96° (E) 19:56:33 437.568
SEEDS 20 Sep 19:53:49 19:58:02 63° 260° (W) 20:02:15 437.485
CUBEBUG 2 20 Sep 20:08:27 20:12:31 49° 261° (W) 20:16:43 437.445
CUTE 1.7 + AOD 2 20 Sep 20:16:05 20:19:29 22° 266° (W) 20:22:53 437.475
UWE-3 20 Sep 20:22:29 20:26:41 61° 260° (W) 20:31:01 435.000/436.395/437.385
AO-85 20 Sep 20:22:59 20:24:29 12° 109° (ESE) 20:26:00 145.980
BEESAT 3 20 Sep 20:24:23 20:28:08 40° 116° (ESE) 20:31:56 437.485
BEESAT 2 20 Sep 20:25:54 20:27:35 12° 108° (ESE) 20:29:16 435.950
AAUSAT CUBESAT 2 20 Sep 20:27:10 20:31:17 59° 259° (W) 20:35:25 437.432
Tancredo 1 20 Sep 20:30:01 20:32:32 36° 138° (SE) 20:35:04 437.200
XW-2A 20 Sep 20:50:11 20:52:08 14° 267° (W) 20:54:06 145.665 - 145.685
HO-68 20 Sep 20:50:35 20:55:46 21° 268° (W) 21:01:01 435.675
DELFI C3 20 Sep 20:53:39 20:56:37 21° 68° (ENE) 20:59:35 145.870
NO-84 20 Sep 20:55:40 20:58:22 30° 35° (NE) 21:00:58 435.350 FM
ISS 20 Sep 21:03:44 21:05:24 13° 130° (SE) 21:07:04 437.550
Max Valier Satellite 20 Sep 21:06:15 21:08:59 20° 68° (ENE) 21:11:44 145.860
AO-73 20 Sep 21:17:42 21:21:30 31° 264° (W) 21:25:27 145.935
ZACube-1 20 Sep 21:18:38 21:22:17 27° 265° (W) 21:26:04 437.345
Oscar 11 20 Sep 21:20:30 21:24:35 41° 262° (W) 21:28:44 .
STRAND 1 20 Sep 21:26:37 21:31:05 31° 293° (WNW) 21:35:33 437.568
nSIGHT-1 20 Sep 21:48:04 21:51:07 41° 138° (SE) 21:54:12 .
AO-85 20 Sep 22:00:33 22:04:22 53° 306° (NW) 22:08:14 145.980
BEESAT 2 20 Sep 22:00:51 22:04:47 57° 304° (NW) 22:08:49 435.950
BEESAT 3 20 Sep 22:02:48 22:05:51 20° 314° (NW) 22:08:56 437.485
YUBILEINY 20 Sep 22:04:27 22:08:13 13° 57° (ENE) 22:11:58 435.215
Tancredo 1 20 Sep 22:04:58 22:07:11 22° 335° (NNW) 22:09:23 437.200
EO-88 20 Sep 22:13:33 22:17:12 76° 259° (W) 22:20:53 145.990 - 145.960
FO-29 20 Sep 22:16:31 22:21:57 87° 104° (ESE) 22:27:56 435.910
UNISAT 6 20 Sep 22:26:17 22:30:43 42° 98° (E) 22:35:10 437.425
DELFI C3 20 Sep 22:27:44 22:31:12 29° 264° (W) 22:34:40 145.870
NO-84 20 Sep 22:33:30 22:35:31 17° 233° (SW) 22:37:30 435.350 FM
ISS 20 Sep 22:38:14 22:41:30 66° 325° (NW) 22:44:47 437.550
Max Valier Satellite 20 Sep 22:39:31 22:42:39 26° 264° (W) 22:45:48 145.860
PRISM 20 Sep 22:50:28 22:54:14 36° 98° (E) 22:58:00 437.425
TIGRISAT 20 Sep 22:50:48 22:55:28 71° 102° (ESE) 23:00:09 435.000
ESTCUBE 1 20 Sep 22:57:38 23:01:40 32° 70° (ENE) 23:05:43 437.505/2401.250
PCSat 20 Sep 23:02:30 23:05:00 13° 39° (NE) 23:07:30 145.827
AIST 2D 20 Sep 23:18:24 23:20:22 14° 92° (E) 23:22:19 435.315
LO-87 20 Sep 23:20:50 23:24:21 89° 74° (ENE) 23:27:54 145.935 - 145.965
nSIGHT-1 20 Sep 23:24:43 23:27:32 27° 335° (NNW) 23:30:23 .
SO-50 20 Sep 23:25:12 23:29:32 40° 51° (NE) 23:33:55 436.795
VELOX 1 20 Sep 23:42:16 23:45:19 19° 65° (ENE) 23:48:22 145.980
DUCHIFAT 1 20 Sep 23:49:04 23:49:57 11° 90° (E) 23:50:51 145.980
POLYITAN 1 20 Sep 23:56:00 23:58:51 17° 93° (E) 00:01:43 437.675
YUBILEINY 20 Sep 23:58:09 00:06:52 68° 80° (E) 00:15:34 435.215
EO-79 21 Sep 00:01:02 00:04:10 20° 94° (E) 00:07:17 145.935-145.965
UNISAT 6 21 Sep 00:03:43 00:07:07 20° 294° (WNW) 00:10:32 437.425
FO-29 21 Sep 00:04:11 00:06:26 13° 300° (WNW) 00:08:46 435.910
SPROUT 21 Sep 00:05:30 00:09:28 41° 72° (ENE) 00:13:28 437.525
QB50P2 21 Sep 00:12:56 00:16:42 29° 96° (E) 00:20:27 145.880/145.840
ISS 21 Sep 00:16:13 00:18:28 17° 344° (NNW) 00:20:43 437.550
PRISM 21 Sep 00:26:31 00:29:14 18° 294° (WNW) 00:31:56 437.425
TIGRISAT 21 Sep 00:29:28 00:31:33 13° 298° (WNW) 00:33:38 435.000
ESTCUBE 1 21 Sep 00:34:50 00:38:29 24° 265° (W) 00:42:08 437.505/2401.250
PCSat 21 Sep 00:43:59 00:49:25 69° 59° (ENE) 00:54:48 145.827
M-CUBED/EXP-1 PRIME 21 Sep 00:50:16 00:51:44 12° 97° (E) 00:53:12 437.505
AIST 2D 21 Sep 00:50:28 00:53:38 31° 288° (WNW) 00:56:46 435.315
NANOSAT C BR1 21 Sep 00:51:26 00:55:41 65° 102° (ESE) 00:59:55 145.865
DX 1 21 Sep 01:00:33 01:04:27 33° 69° (ENE) 01:08:20 434.975-435.025
UKube-1 21 Sep 01:01:04 01:04:23 22° 67° (ENE) 01:07:44 .
nSIGHT-1 21 Sep 01:03:11 01:04:43 13° 355° (N) 01:06:14 .
SO-50 21 Sep 01:06:08 01:09:46 23° 248° (WSW) 01:13:26 436.795
Tancredo 1 21 Sep 01:16:56 01:18:04 12° 14° (NNE) 01:19:13 437.200
VELOX 1 21 Sep 01:17:17 01:21:27 41° 261° (W) 01:25:37 145.980
DUCHIFAT 1 21 Sep 01:21:47 01:26:00 64° 285° (WNW) 01:30:12 145.980
50 SAT 21 Sep 01:24:46 01:28:04 86° 78° (ENE) 01:31:24 437.505
Gurwin Techsat 1B 21 Sep 01:27:36 01:29:42 12° 89° (E) 01:31:48 435.225
POLYITAN 1 21 Sep 01:30:45 01:34:47 40° 288° (WNW) 01:38:47 437.675
EO-79 21 Sep 01:36:06 01:40:00 35° 289° (WNW) 01:43:52 145.935-145.965
SPROUT 21 Sep 01:42:53 01:45:32 16° 268° (W) 01:48:13 437.525
QB50P2 21 Sep 01:48:54 01:52:20 24° 292° (WNW) 01:55:46 145.880/145.840
ISS 21 Sep 01:54:23 01:55:58 13° 5° (N) 01:57:34 437.550
YUBILEINY 21 Sep 01:56:13 02:02:50 25° 279° (W) 02:09:29 435.215
Oscar 19 21 Sep 02:05:59 02:10:55 43° 99° (E) 02:15:48 437.125/150
BUGSAT 1 21 Sep 02:09:51 02:14:02 70° 285° (WNW) 02:18:14 437.445
BEESAT 21 Sep 02:15:01 02:18:15 19° 64° (ENE) 02:21:30 436.000
M-CUBED/EXP-1 PRIME 21 Sep 02:23:20 02:26:21 31° 294° (WNW) 02:29:16 437.505
PCSat 21 Sep 02:29:01 02:32:11 16° 256° (WSW) 02:35:20 145.827
NANOSAT C BR1 21 Sep 02:29:18 02:30:49 12° 297° (WNW) 02:32:22 145.865
UKube-1 21 Sep 02:36:22 02:40:13 32° 262° (W) 02:44:06 .
DX 1 21 Sep 02:37:22 02:40:40 21° 265° (W) 02:43:58 434.975-435.025
nSIGHT-1 21 Sep 02:39:54 02:42:04 16° 15° (NNE) 02:44:14 .
Tancredo 1 21 Sep 02:50:29 02:53:09 49° 33° (NNE) 02:55:48 437.200
Gurwin Techsat 1B 21 Sep 03:04:54 03:10:14 79° 286° (WNW) 03:15:32 435.225
ITUPSAT 1 21 Sep 03:12:02 03:16:45 66° 74° (ENE) 03:21:30 437.325
MOZHAYETS 4 21 Sep 03:12:33 03:17:06 63° 74° (ENE) 03:21:42
O/OREOS (USA 219) 21 Sep 03:18:59 03:23:29 83° 108° (ESE) 03:28:02 437.305
ISS 21 Sep 03:30:26 03:33:18 26° 25° (NNE) 03:36:10 437.550
CUBESAT XI-V 21 Sep 03:31:41 03:35:17 22° 66° (ENE) 03:38:53 437.345
RS-15 21 Sep 03:42:38 03:45:46 11° 92° (E) 03:48:54 29.354- 29.394
Oscar 19 21 Sep 03:45:56 03:49:56 23° 295° (WNW) 03:53:56 437.125/150
BEESAT 21 Sep 03:51:02 03:55:38 49° 260° (W) 04:00:16 436.000
KKS-1 21 Sep 03:57:29 03:59:55 15° 63° (ENE) 04:02:21 437.445
AO-7 21 Sep 03:57:45 04:05:34 44° 100° (E) 04:13:20 .
nSIGHT-1 21 Sep 04:15:40 04:18:55 63° 34° (NE) 04:22:09 .
Tancredo 1 21 Sep 04:26:08 04:27:24 13° 229° (SW) 04:28:40 437.200
STARS 21 Sep 04:30:57 04:33:02 13° 62° (ENE) 04:35:07 437.465
BEESAT 3 21 Sep 04:41:28 04:44:43 23° 47° (NE) 04:47:55 437.485
ITAMSAT 1 21 Sep 04:43:00 04:48:14 86° 103° (ESE) 04:53:27 435.822/435.867
BEESAT 2 21 Sep 04:43:40 04:44:08 10° 38° (NE) 04:44:36 435.950
Gurwin Techsat 1B 21 Sep 04:48:04 04:49:17 11° 303° (WNW) 04:50:31 435.225
AO-85 21 Sep 04:51:49 04:54:29 16° 43° (NE) 04:57:15 145.980
MOZHAYETS 4 21 Sep 04:52:44 04:54:40 12° 270° (W) 04:56:37
ITUPSAT 1 21 Sep 04:52:54 04:55:00 13° 270° (W) 04:57:07 437.325
O/OREOS (USA 219) 21 Sep 05:01:57 05:03:32 12° 309° (NW) 05:05:07 437.305
ISS 21 Sep 05:06:44 05:09:53 44° 222° (SW) 05:13:02 437.550
CUBESAT XI-V 21 Sep 05:08:00 05:12:23 38° 262° (W) 05:16:48 437.345
KKS-1 21 Sep 05:31:40 05:36:00 55° 259° (W) 05:40:21 437.445
RS-15 21 Sep 05:43:37 05:55:29 60° 113° (ESE) 06:07:28 29.354- 29.394
AO-7 21 Sep 05:50:36 05:58:16 43° 298° (WNW) 06:05:54 .
nSIGHT-1 21 Sep 05:53:06 05:54:53 14° 230° (SW) 05:56:41 .
STARS 21 Sep 06:04:34 06:08:52 59° 259° (W) 06:13:11 437.465
DOVE 4 21 Sep 06:07:54 06:12:04 63° 100° (E) 06:16:24 437.250
CUTE-I 21 Sep 06:10:43 06:14:12 17° 92° (E) 06:17:40 437.470
BEESAT 2 21 Sep 06:18:32 06:22:36 74° 57° (ENE) 06:26:36 435.950
BEESAT 3 21 Sep 06:18:45 06:22:19 32° 245° (WSW) 06:25:48 437.485
XW-2D 21 Sep 06:22:53 06:26:01 24° 95° (E) 06:29:07 145.860 - 145.880
ITAMSAT 1 21 Sep 06:24:45 06:26:57 13° 301° (WNW) 06:29:09 435.822/435.867
AO-85 21 Sep 06:30:51 06:35:19 76° 240° (WSW) 06:40:07 145.980
HO-68 21 Sep 06:31:52 06:34:13 12° 87° (E) 06:36:33 435.675
XW-2B 21 Sep 06:34:54 06:38:21 31° 97° (E) 06:41:45 145.730 - 145.750
XW-2F 21 Sep 06:37:20 06:40:47 32° 97° (E) 06:44:11 145.980 - 146.000
XW-2C 21 Sep 06:55:49 06:59:37 61° 100° (E) 07:03:22 145.795 - 145.815
STRAND 1 21 Sep 07:02:53 07:07:42 44° 70° (ENE) 07:12:31 437.568
LilacSat-2 21 Sep 07:04:29 07:08:21 85° 102° (ESE) 07:12:10 437.200
NUDT-PHONESAT 21 Sep 07:10:21 07:14:05 65° 101° (E) 07:17:46 437.300
KAITUO 1B 21 Sep 07:34:08 07:37:51 57° 285° (WNW) 07:41:30 145.475/437.950
SEEDS 21 Sep 07:38:26 07:41:38 21° 94° (E) 07:44:48 437.485
DOVE 4 21 Sep 07:47:50 07:49:18 12° 296° (WNW) 07:50:46 437.250
CUTE-I 21 Sep 07:49:22 07:54:36 58° 288° (WNW) 07:59:48 437.470
RS-15 21 Sep 07:56:42 08:08:26 48° 316° (NW) 08:20:12 29.354- 29.394
XW-2D 21 Sep 07:57:04 08:00:05 23° 291° (WNW) 08:03:05 145.860 - 145.880
CUBEBUG 2 21 Sep 07:58:57 08:03:16 35° 97° (E) 08:07:35 437.445
CUTE 1.7 + AOD 2 21 Sep 08:00:00 08:04:13 62° 101° (E) 08:08:23 437.475
XW-2B 21 Sep 08:09:42 08:12:16 17° 293° (WNW) 08:14:49 145.730 - 145.750
AAUSAT CUBESAT 2 21 Sep 08:10:02 08:13:09 21° 94° (E) 08:16:15 437.432
XW-2A 21 Sep 08:10:30 08:13:36 31° 97° (E) 08:16:39 145.665 - 145.685
XW-2F 21 Sep 08:12:08 08:14:37 17° 293° (WNW) 08:17:07 145.980 - 146.000
UWE-3 21 Sep 08:12:14 08:16:16 28° 95° (E) 08:20:17 435.000/436.395/437.385
HO-68 21 Sep 08:15:48 08:23:01 76° 104° (ESE) 08:30:12 435.675
FO-29 21 Sep 08:29:19 08:34:28 34° 69° (ENE) 08:39:15 435.910
STRAND 1 21 Sep 08:43:12 08:47:03 21° 267° (W) 08:50:55 437.568
AO-73 21 Sep 09:05:03 09:09:30 49° 99° (E) 09:13:55 145.935
ZACube-1 21 Sep 09:06:04 09:10:36 57° 100° (E) 09:15:07 437.345
Oscar 11 21 Sep 09:07:46 09:11:47 35° 97° (E) 09:15:45 .
SEEDS 21 Sep 09:13:39 09:17:21 30° 290° (WNW) 09:20:59 437.485
UNISAT 6 21 Sep 09:24:55 09:28:47 33° 70° (ENE) 09:32:46 437.425
CUBEBUG 2 21 Sep 09:35:55 09:39:40 24° 292° (WNW) 09:43:27 437.445
CUTE 1.7 + AOD 2 21 Sep 09:37:53 09:39:30 12° 297° (WNW) 09:41:06 437.475
PRISM 21 Sep 09:39:27 09:42:52 26° 69° (ENE) 09:46:16 437.425
XW-2A 21 Sep 09:44:07 09:46:02 14° 293° (WNW) 09:47:55 145.665 - 145.685
AAUSAT CUBESAT 2 21 Sep 09:45:01 09:48:37 30° 290° (WNW) 09:52:12 437.432
UWE-3 21 Sep 09:48:37 09:52:37 29° 291° (WNW) 09:56:38 435.000/436.395/437.385
TIGRISAT 21 Sep 09:49:02 09:53:14 56° 74° (ENE) 09:57:34 435.000
DELFI C3 21 Sep 10:04:21 10:07:54 32° 97° (E) 10:11:25 145.870
HO-68 21 Sep 10:04:47 10:10:00 22° 303° (WNW) 10:15:14 435.675
Max Valier Satellite 21 Sep 10:09:12 10:12:25 27° 96° (E) 10:15:37 145.860
FO-29 21 Sep 10:14:28 10:19:34 30° 263° (W) 10:24:19 435.910
RS-15 21 Sep 10:15:58 10:25:10 23° 348° (NNW) 10:34:12 29.354- 29.394
AO-73 21 Sep 10:42:23 10:45:19 17° 295° (WNW) 10:48:15 145.935
ZACube-1 21 Sep 10:43:47 10:46:22 15° 296° (WNW) 10:48:58 437.345
Oscar 11 21 Sep 10:44:27 10:47:39 20° 293° (WNW) 10:50:51 .
POLYITAN 1 21 Sep 10:49:14 10:51:12 13° 63° (ENE) 10:53:12 437.675
EO-79 21 Sep 10:53:55 10:56:16 15° 64° (ENE) 10:58:38 145.935-145.965
UNISAT 6 21 Sep 11:02:18 11:05:34 21° 267° (W) 11:08:55 437.425
QB50P2 21 Sep 11:05:31 11:08:44 22° 67° (ENE) 11:11:58 145.880/145.840
YUBILEINY 21 Sep 11:07:36 11:11:39 14° 75° (ENE) 11:15:41 435.215
PRISM 21 Sep 11:14:41 11:18:03 24° 264° (W) 11:21:26 437.425
EO-88 21 Sep 11:15:54 11:19:29 54° 286° (WNW) 11:23:03 145.990 - 145.960
AIST 2D 21 Sep 11:23:29 11:27:01 80° 77° (ENE) 11:30:35 435.315
TIGRISAT 21 Sep 11:28:30 11:30:18 12° 270° (W) 11:32:09 435.000
M-CUBED/EXP-1 PRIME 21 Sep 11:34:13 11:37:36 23° 64° (ENE) 11:40:49 437.505
DELFI C3 21 Sep 11:39:43 11:42:25 18° 293° (WNW) 11:45:05 145.870
NANOSAT C BR1 21 Sep 11:42:54 11:46:52 44° 72° (ENE) 11:50:53 145.865
Max Valier Satellite 21 Sep 11:43:19 11:46:04 20° 292° (WNW) 11:48:49 145.860
O/OREOS (USA 219) 21 Sep 11:51:03 11:54:04 17° 55° (NE) 11:57:04 437.305
DUCHIFAT 1 21 Sep 12:12:41 12:16:50 87° 77° (ENE) 12:21:03 145.980
LO-87 21 Sep 12:20:59 12:24:34 69° 284° (WNW) 12:28:09 145.935 - 145.965
POLYITAN 1 21 Sep 12:22:23 12:26:30 56° 260° (W) 12:30:40 437.675
ESTCUBE 1 21 Sep 12:26:18 12:30:49 74° 101° (E) 12:35:17 437.505/2401.250
EO-79 21 Sep 12:27:33 12:31:36 48° 261° (W) 12:35:42 145.935-145.965
RS-15 21 Sep 12:33:23 12:43:23 28° 24° (NNE) 12:52:59 29.354- 29.394
QB50P2 21 Sep 12:40:35 12:44:20 31° 263° (W) 12:48:06 145.880/145.840
Gurwin Techsat 1B 21 Sep 12:47:36 12:51:30 21° 63° (ENE) 12:55:25 435.225
YUBILEINY 21 Sep 12:58:13 13:06:54 79° 95° (E) 13:15:36 435.215
BUGSAT 1 21 Sep 12:58:50 13:02:50 75° 75° (ENE) 13:06:52 437.445
VELOX 1 21 Sep 13:07:15 13:11:18 35° 98° (E) 13:15:19 145.980
M-CUBED/EXP-1 PRIME 21 Sep 13:07:52 13:11:50 33° 257° (WSW) 13:15:36 437.505
AO-7 21 Sep 13:09:37 13:13:11 14° 45° (NE) 13:16:46 .
NANOSAT C BR1 21 Sep 13:20:25 13:22:48 15° 268° (W) 13:25:11 145.865
Oscar 19 21 Sep 13:22:18 13:27:25 63° 73° (ENE) 13:32:34 437.125/150
SPROUT 21 Sep 13:26:36 13:30:54 85° 106° (ESE) 13:35:12 437.525
O/OREOS (USA 219) 21 Sep 13:29:19 13:33:49 54° 252° (WSW) 13:38:18 437.305
SO-50 21 Sep 13:41:46 13:43:37 12° 108° (ESE) 13:45:29 436.795
NO-84 21 Sep 13:47:29 13:51:13 47° 133° (SE) 13:54:39 435.350 FM
ESTCUBE 1 21 Sep 14:05:28 14:06:59 12° 299° (WNW) 14:08:30 437.505/2401.250
50 SAT 21 Sep 14:17:30 14:20:49 84° 102° (ESE) 14:24:07 437.505
UKube-1 21 Sep 14:23:01 14:27:04 39° 98° (E) 14:31:06 .
ITAMSAT 1 21 Sep 14:23:46 14:26:58 17° 61° (ENE) 14:30:10 435.822/435.867
DX 1 21 Sep 14:24:19 14:28:37 65° 101° (ESE) 14:32:55 434.975-435.025
Gurwin Techsat 1B 21 Sep 14:25:54 14:31:03 51° 260° (W) 14:36:14 435.225
VELOX 1 21 Sep 14:44:13 14:47:30 21° 294° (WNW) 14:50:46 145.980
RS-15 21 Sep 14:46:31 14:58:34 71° 53° (NE) 15:09:54 29.354- 29.394
AO-7 21 Sep 14:56:07 15:04:13 59° 66° (ENE) 15:12:20 .
YUBILEINY 21 Sep 14:58:17 15:04:40 22° 295° (WNW) 15:11:07 435.215
Oscar 19 21 Sep 15:04:06 15:07:08 16° 269° (W) 15:10:12 437.125/150
MOZHAYETS 4 21 Sep 15:09:09 15:11:51 15° 91° (E) 15:14:32
ITUPSAT 1 21 Sep 15:13:51 15:16:59 17° 92° (E) 15:20:06 437.325
